When you browse on this site, cookies collect data to enhance your experience and personalize the content and advertising you see.
Visit our Privacy Policy to learn more. By continuing to use the site, you agree to this use of cookies and data.
  • In Österreich
  • Länderverzeichnis
  • Für 7 Tage
  • Wassertemperatur
  • Satellitenkarten
  • Wetterkarte
  • News
  • Widgets
  • user-avatar
    Anmelden

    Stündliche Wetter Milevichi

    Heute, 24 Mai, Freitag

    Zeit Temperatur Niederschläge Wind Luftdruck Luftfeuchtigkeit
    00:00 +14°C° 0 mm 3 m/S 745 mmHg 96%
    01:00 +13°C° 0 mm 3 m/S 745 mmHg 97%
    02:00 +12°C° 0 mm 3 m/S 745 mmHg 98%
    03:00 +12°C° 0 mm 3 m/S 745 mmHg 97%
    04:00 +12°C° 0 mm 3 m/S 745 mmHg 97%
    05:00 +12°C° 0 mm 3 m/S 745 mmHg 97%
    06:00 +12°C° 0 mm 3 m/S 745 mmHg 96%
    07:00 +12°C° 0 mm 3 m/S 746 mmHg 95%
    08:00 +12°C° 0 mm 3 m/S 746 mmHg 94%
    09:00 +13°C° 0 mm 3 m/S 746 mmHg 93%
    10:00 +13°C° 0 mm 3 m/S 746 mmHg 91%
    11:00 +14°C° 0 mm 3 m/S 746 mmHg 90%
    12:00 +14°C° 0 mm 3 m/S 745 mmHg 88%
    13:00 +16°C° 0 mm 3 m/S 745 mmHg 86%
    14:00 +17°C° 0 mm 3 m/S 745 mmHg 84%
    15:00 +18°C° 0 mm 3 m/S 745 mmHg 82%
    16:00 +19°C° 0 mm 3 m/S 744 mmHg 79%
    17:00 +19°C° 0 mm 3 m/S 744 mmHg 77%
    18:00 +18°C° 0 mm 3 m/S 744 mmHg 81%
    19:00 +18°C° 0 mm 2 m/S 744 mmHg 85%
    20:00 +17°C° 0 mm 2 m/S 744 mmHg 89%
    21:00 +15°C° 0 mm 2 m/S 744 mmHg 91%
    22:00 +14°C° 0 mm 2 m/S 744 mmHg 93%
    23:00 +13°C° 0 mm 2 m/S 744 mmHg 95%

    Morgen, 25 Mai, Samstag

    Zeit Temperatur Niederschläge Wind Luftdruck Luftfeuchtigkeit
    00:00 +13°C° 0 mm 2 m/S 744 mmHg 95%
    01:00 +13°C° 0 mm 2 m/S 744 mmHg 96%
    02:00 +12°C° 0 mm 2 m/S 744 mmHg 96%
    03:00 +12°C° 0 mm 2 m/S 744 mmHg 95%
    04:00 +12°C° 0 mm 2 m/S 744 mmHg 94%
    05:00 +10°C° 0 mm 2 m/S 744 mmHg 93%
    06:00 +13°C° 0 mm 2 m/S 744 mmHg 87%
    07:00 +13°C° 0 mm 3 m/S 744 mmHg 81%
    08:00 +16°C° 0 mm 3 m/S 744 mmHg 75%
    09:00 +17°C° 0 mm 3 m/S 744 mmHg 69%
    10:00 +18°C° 0 mm 4 m/S 744 mmHg 64%
    11:00 +20°C° 0 mm 4 m/S 744 mmHg 58%
    12:00 +20°C° 0 mm 4 m/S 744 mmHg 58%
    13:00 +21°C° 0 mm 4 m/S 743 mmHg 58%
    14:00 +21°C° 0 mm 5 m/S 743 mmHg 57%
    15:00 +21°C° 0.1 mm 5 m/S 743 mmHg 61%
    16:00 +21°C° 0.1 mm 5 m/S 743 mmHg 65%
    17:00 +20°C° 0.1 mm 5 m/S 743 mmHg 68%
    18:00 +19°C° 0.1 mm 5 m/S 743 mmHg 74%
    19:00 +17°C° 0.1 mm 4 m/S 743 mmHg 79%
    20:00 +16°C° 0.1 mm 3 m/S 743 mmHg 85%
    21:00 +14°C° 0 mm 3 m/S 743 mmHg 87%
    22:00 +13°C° 0 mm 2 m/S 744 mmHg 89%
    23:00 +12°C° 0 mm 2 m/S 744 mmHg 90%

    übermorgen, 26 Mai, Sonntag

    Zeit Temperatur Niederschläge Wind Luftdruck Luftfeuchtigkeit
    00:00 +10°C° 0 mm 2 m/S 744 mmHg 92%
    01:00 +9°C° 0 mm 2 m/S 744 mmHg 93%
    02:00 +9°C° 0 mm 2 m/S 744 mmHg 94%
    03:00 +8°C° 0 mm 2 m/S 744 mmHg 94%
    04:00 +8°C° 0 mm 2 m/S 745 mmHg 95%
    05:00 +8°C° 0 mm 2 m/S 745 mmHg 95%
    06:00 +10°C° 0 mm 2 m/S 745 mmHg 89%
    07:00 +12°C° 0 mm 3 m/S 745 mmHg 83%
    08:00 +14°C° 0 mm 3 m/S 745 mmHg 77%
    09:00 +15°C° 0 mm 4 m/S 745 mmHg 73%
    10:00 +17°C° 0 mm 4 m/S 745 mmHg 69%
    11:00 +17°C° 0 mm 5 m/S 744 mmHg 64%
    12:00 +19°C° 0 mm 5 m/S 744 mmHg 61%
    13:00 +19°C° 0 mm 5 m/S 744 mmHg 59%
    14:00 +20°C° 0 mm 6 m/S 743 mmHg 56%
    15:00 +20°C° 0 mm 5 m/S 743 mmHg 59%
    16:00 +19°C° 0 mm 5 m/S 743 mmHg 62%
    17:00 +19°C° 0 mm 4 m/S 743 mmHg 65%
    18:00 +18°C° 0.1 mm 4 m/S 743 mmHg 71%
    19:00 +15°C° 0.1 mm 4 m/S 743 mmHg 78%
    20:00 +14°C° 0.1 mm 4 m/S 743 mmHg 85%
    21:00 +12°C° 0 mm 3 m/S 744 mmHg 87%
    22:00 +12°C° 0 mm 2 m/S 744 mmHg 90%
    23:00 +10°C° 0 mm 2 m/S 744 mmHg 93%

    27 Mai, Montag

    Zeit Temperatur Niederschläge Wind Luftdruck Luftfeuchtigkeit
    00:00 +10°C° 0 mm 2 m/S 745 mmHg 93%
    01:00 +9°C° 0 mm 2 m/S 745 mmHg 93%
    02:00 +9°C° 0 mm 3 m/S 745 mmHg 93%
    03:00 +9°C° 0 mm 3 m/S 745 mmHg 92%
    04:00 +10°C° 0 mm 3 m/S 745 mmHg 90%
    05:00 +10°C° 0 mm 3 m/S 745 mmHg 89%
    06:00 +12°C° 0 mm 4 m/S 745 mmHg 84%
    07:00 +13°C° 0 mm 4 m/S 745 mmHg 79%
    08:00 +15°C° 0 mm 5 m/S 745 mmHg 75%
    09:00 +17°C° 0 mm 5 m/S 745 mmHg 71%
    10:00 +19°C° 0 mm 6 m/S 745 mmHg 67%
    11:00 +20°C° 0 mm 6 m/S 745 mmHg 63%
    12:00 +21°C° 0 mm 6 m/S 745 mmHg 61%
    13:00 +22°C° 0 mm 6 m/S 744 mmHg 60%
    14:00 +23°C° 0 mm 6 m/S 744 mmHg 59%
    15:00 +23°C° 0.2 mm 6 m/S 744 mmHg 62%
    16:00 +23°C° 0.2 mm 5 m/S 743 mmHg 65%
    17:00 +23°C° 0.2 mm 5 m/S 743 mmHg 68%
    18:00 +21°C° 0.3 mm 4 m/S 743 mmHg 73%
    19:00 +20°C° 0.3 mm 4 m/S 743 mmHg 78%
    20:00 +19°C° 0.3 mm 3 m/S 743 mmHg 83%
    21:00 +18°C° 0.1 mm 4 m/S 743 mmHg 86%
    22:00 +18°C° 0.1 mm 4 m/S 744 mmHg 89%
    23:00 +17°C° 0.1 mm 4 m/S 744 mmHg 91%

    28 Mai, Dienstag

    Zeit Temperatur Niederschläge Wind Luftdruck Luftfeuchtigkeit
    00:00 +17°C° 0 mm 4 m/S 744 mmHg 92%
    01:00 +16°C° 0 mm 3 m/S 744 mmHg 94%
    02:00 +16°C° 0 mm 3 m/S 744 mmHg 95%
    03:00 +16°C° 0 mm 2 m/S 744 mmHg 95%
    04:00 +15°C° 0 mm 2 m/S 744 mmHg 95%
    05:00 +15°C° 0 mm 2 m/S 744 mmHg 96%
    06:00 +16°C° 0.2 mm 2 m/S 744 mmHg 93%
    07:00 +18°C° 0.2 mm 1 m/S 744 mmHg 91%
    08:00 +19°C° 0.2 mm 1 m/S 744 mmHg 89%
    09:00 +18°C° 2.4 mm 2 m/S 744 mmHg 91%
    10:00 +17°C° 2.4 mm 2 m/S 743 mmHg 94%
    11:00 +17°C° 2.4 mm 3 m/S 743 mmHg 96%
    12:00 +18°C° 0.7 mm 3 m/S 743 mmHg 93%
    13:00 +19°C° 0.7 mm 3 m/S 743 mmHg 90%
    14:00 +20°C° 0.7 mm 3 m/S 742 mmHg 88%
    15:00 +21°C° 0.3 mm 3 m/S 742 mmHg 85%
    16:00 +23°C° 0.3 mm 2 m/S 742 mmHg 83%
    17:00 +23°C° 0.3 mm 2 m/S 742 mmHg 81%
    18:00 +21°C° 0.5 mm 2 m/S 742 mmHg 85%
    19:00 +21°C° 0.5 mm 1 m/S 742 mmHg 89%
    20:00 +20°C° 0.5 mm 1 m/S 742 mmHg 93%
    21:00 +19°C° 0.7 mm 2 m/S 742 mmHg 94%
    22:00 +18°C° 0.7 mm 2 m/S 742 mmHg 95%
    23:00 +18°C° 0.7 mm 2 m/S 742 mmHg 96%

    29 Mai, Mittwoch

    Zeit Temperatur Niederschläge Wind Luftdruck Luftfeuchtigkeit
    00:00 +17°C° 0.3 mm 2 m/S 741 mmHg 96%
    01:00 +17°C° 0.3 mm 2 m/S 741 mmHg 96%
    02:00 +17°C° 0.3 mm 2 m/S 741 mmHg 96%
    03:00 +17°C° 0.1 mm 2 m/S 741 mmHg 96%
    04:00 +17°C° 0.1 mm 2 m/S 741 mmHg 96%
    05:00 +17°C° 0.1 mm 2 m/S 741 mmHg 96%
    06:00 +18°C° 0 mm 2 m/S 741 mmHg 93%
    07:00 +19°C° 0 mm 2 m/S 741 mmHg 89%
    08:00 +21°C° 0 mm 2 m/S 741 mmHg 86%
    09:00 +22°C° 0.9 mm 3 m/S 741 mmHg 82%
    10:00 +23°C° 0.9 mm 4 m/S 741 mmHg 77%
    11:00 +25°C° 0.9 mm 4 m/S 742 mmHg 73%
    12:00 +23°C° 1.5 mm 5 m/S 742 mmHg 75%
    13:00 +23°C° 1.5 mm 5 m/S 742 mmHg 77%
    14:00 +22°C° 1.5 mm 5 m/S 742 mmHg 79%
    15:00 +22°C° 1.2 mm 4 m/S 742 mmHg 80%
    16:00 +22°C° 1.2 mm 4 m/S 743 mmHg 81%
    17:00 +21°C° 1.2 mm 3 m/S 743 mmHg 82%
    18:00 +20°C° 0.1 mm 3 m/S 743 mmHg 86%
    19:00 +18°C° 0.1 mm 3 m/S 744 mmHg 90%
    20:00 +16°C° 0.1 mm 3 m/S 744 mmHg 94%
    21:00 +14°C° 0 mm 3 m/S 744 mmHg 95%
    22:00 +13°C° 0 mm 3 m/S 745 mmHg 96%
    23:00 +13°C° 0 mm 2 m/S 745 mmHg 97%
    Mehr zeigen